Molniya
NORAD ID: 28163
Int'l Code: 2004-005A
Perigee: 1,331.1 km
Apogee: 39,036.5 km
Inclination: 64.7 °
Period: 717.8 minutes
Semi major axis: 26554 km
Launch date: February 18, 2004
Source: Commonwealth of Independent States (former USSR) (CIS)
Comments: Military communications.
Two Line Element Set (TLE):
1 28163U 04005A 13140.45033573 .00000121 00000-0 10000-3 0 1404
2 28163 064.6951 127.3357 7099541 251.4293 348.8465 02.00626538 67780
Source: AFSPC
NASA's NSSDC Master Catalog entry for MOLNIYA 1-93